Retour au catalogue

STARLINK-37209

ActifCommunicationsVLEO
NORAD 69187·PAYLOAD·🇺🇸 United States

Lancé May 25, 2026 depuis Cape Canaveral Space Force Station

Loading…

Prochains Passages (prochaines 24 heures)

TLE

FraisSource: CelesTrak SupGP

Époque: Sep 15, 2026, 03:21 UTC

1 69187C 26114F   26258.14006944  .00041799  00000+0  12335-2 0  2589
2 69187  53.1558 139.0156 0001411  75.7679 159.3388 15.34407375    10

Suivez STARLINK-37209 en temps réel avec AllMySat

Download on the App Store